Location: Alladorf
(49.9620°N, 11.3790°E)
Time: 20:56:01
(UTC+00:00)

H-2A R/B - Pass Details

Date: 29 November 2020
Orbit: 499 x 540 km, 97.3° (Epoch: 22 January)

Event Time Altitude Azimuth Distance (km) Brightness Sun altitude
Rises 04:33:42 0° 18° (NNE) 2,713 6.5 -20.9°
Reaches altitude 10° 04:35:55 10° 25° (NNE) 1,814 5.6 -20.6°
Maximum altitude 04:39:41 44° 98° (E) 759 4.0 -20.0°
Drops below altitude 10° 04:43:23 10° 171° (S) 1,784 5.6 -19.4°
Sets 04:45:33 0° 178° (S) 2,664 6.5 -19.0°
